This is the latest recevied weather packets stored in our database for station/object K9UO. If no packets are shown the sender has not sent any weather packets the latest 10 day(s).
| Time | Temp. | Humidity | Pressure | Rain* | Wind** | Luminosity | Snow |
|---|---|---|---|---|---|---|---|
| 1777916707 | 21.67° C | 52% | 1004.8 hPa | 0 mm | - | - | - |
| 1777915806 | 22.22° C | 51% | 1004.8 hPa | 0 mm | - | - | - |
| 1777914903 | 21.67° C | 52% | 1004.9 hPa | 0 mm | - | - | - |
| 1777914002 | 21.11° C | 51% | 1005.1 hPa | 0 mm | - | - | - |
| 1777913165 | 21.11° C | 51% | 1005.3 hPa | 0 mm | - | - | - |
| 1777912266 | 20.56° C | 52% | 1005.5 hPa | 0 mm | - | - | - |
| 1777911352 | 20° C | 52% | 1005.8 hPa | 0 mm | - | - | - |
| 1777910453 | 19.44° C | 53% | 1005.9 hPa | 0 mm | - | - | - |
| 1777909544 | 18.89° C | 52% | 1006.1 hPa | 0 mm | - | - | - |
| 1777908642 | 18.33° C | 51% | 1006.3 hPa | 0 mm | - | - | - |
| 1777907740 | 17.78° C | 51% | 1006.4 hPa | 0 mm | - | - | - |
| 1777906839 | 17.22° C | 51% | 1006.4 hPa | 0 mm | - | - | - |
| 1777905936 | 17.22° C | 49% | 1006.5 hPa | 0 mm | - | - | - |
| 1777905029 | 16.67° C | 47% | 1006.7 hPa | 0 mm | - | - | - |
| 1777904128 | 16.11° C | 48% | 1006.7 hPa | 0 mm | - | - | - |
| 1777903224 | 16.11° C | 46% | 1007 hPa | 0 mm | - | - | - |
| 1777902321 | 15.56° C | 42% | 1006.9 hPa | 0 mm | - | - | - |
| 1777901418 | 15° C | 43% | 1007 hPa | 0 mm | - | - | - |
| 1777900513 | 14.44° C | 42% | 1007 hPa | 0 mm | - | - | - |
| 1777899619 | 13.89° C | 40% | 1007.1 hPa | 0 mm | - | - | - |
| 1777898707 | 13.33° C | 38% | 1007.2 hPa | 0 mm | - | - | - |
| 1777897804 | 12.78° C | 39% | 1007.2 hPa | 0 mm | - | - | - |
| 1777896900 | 12.22° C | 40% | 1007.4 hPa | 0 mm | - | - | - |
| 1777896059 | 11.67° C | 42% | 1007.4 hPa | 0 mm | - | - | - |
| 1777895163 | 11.11° C | 42% | 1007.5 hPa | 0 mm | - | - | - |
* Rain latest hour (hover to see other rain measurements)
** Current wind speed in m/s (hover to see current wind gust speed)